This is the latest recevied weather packets stored in our database for station/object OK1VCF-5. If no packets are shown the sender has not sent any weather packets the latest 10 day(s).
| Time | Temp. | Humidity | Pressure | Rain* | Wind** | Luminosity | Snow |
|---|---|---|---|---|---|---|---|
| 1777467145 | 16.67° C | 28% | 1028.3 hPa | - | - | - | - |
| 1777467144 | 16.67° C | 28% | 1028.3 hPa | - | - | - | - |
| 1777466244 | 17.78° C | 28% | 1028.4 hPa | - | - | - | - |
| 1777465342 | 17.22° C | 28% | 1028.6 hPa | - | - | - | - |
| 1777464444 | 17.22° C | 26% | 1028.4 hPa | - | - | - | - |
| 1777463543 | 17.78° C | 27% | 1028.4 hPa | - | - | - | - |
| 1777462641 | 16.67° C | 26% | 1028.6 hPa | - | - | - | - |
| 1777461741 | 16.67° C | 28% | 1028.6 hPa | - | - | - | - |
| 1777460840 | 17.22° C | 28% | 1028.9 hPa | - | - | - | - |
| 1777459939 | 16.67° C | 28% | 1028.9 hPa | - | - | - | - |
| 1777459037 | 15.56° C | 27% | 1029.2 hPa | - | - | - | - |
| 1777458137 | 15.56° C | 27% | 1029.2 hPa | - | - | - | - |
| 1777457237 | 15.56° C | 30% | 1029.3 hPa | - | - | - | - |
| 1777456334 | 15.56° C | 28% | 1029.6 hPa | - | - | - | - |
| 1777455435 | 13.89° C | 28% | 1029.6 hPa | - | - | - | - |
| 1777454534 | 14.44° C | 28% | 1029.6 hPa | - | - | - | - |
| 1777453634 | 15.56° C | 31% | 1029.6 hPa | - | - | - | - |
| 1777452731 | 13.33° C | 30% | 1030 hPa | - | - | - | - |
| 1777451832 | 13.33° C | 30% | 1029.8 hPa | - | - | - | - |
| 1777450931 | 14.44° C | 32% | 1029.8 hPa | - | - | - | - |
| 1777450030 | 13.33° C | 30% | 1029.8 hPa | - | - | - | - |
| 1777449130 | 12.22° C | 34% | 1030 hPa | - | - | - | - |
| 1777448227 | 12.22° C | 34% | 1030 hPa | - | - | - | - |
| 1777446427 | 11.11° C | 36% | 1030 hPa | - | - | - | - |
| 1777445527 | 10° C | 46% | 1030 hPa | - | - | - | - |
* Rain since midnight (hover to see other rain measurements)
** Current wind speed in m/s (hover to see current wind gust speed)